Location: Ernsee
(50.8780°N, 12.0389°E)
Time: 22:03:31
(UTC+00:00)

STARLINK-26 - Pass Details

Date: 20 January 2020
Orbit: 435 x 437 km, 53.0° (Epoch: 18 February)

Event Time Altitude Azimuth Distance (km) Brightness Sun altitude
Exits shadow 04:39:19 27° 170° (S) 876 4.7 -22.3°
Drops below altitude 10° 04:43:11 10° 82° (E) 1,552 7.0 -21.7°
Enters shadow 05:39:48 -68° 249° (WSW) 12,300 10.4 -12.9°
Maximum altitude 06:16:57 81° 342° (NNW) 449 3.1 -7.4°
